Orbital Elements at Epoch 2459200.5 (2020-Dec-17.0) TDB
Reference: JPL 18 (heliocentric ecliptic J2000)
Element | Value | Uncertainty (1-sigma) | Units |
e | .1046932880238814 | 6.4378e-08 | |
a | 3.06526018177036 | 3.6441e-08 | au |
q | 2.74434801469214 | 2.1399e-07 | au |
i | 18.06061744479628 | 6.0472e-06 | deg |
node | 104.1390877268926 | 1.7104e-05 | deg |
peri | 340.6028706662515 | 3.4723e-05 | deg |
M | 349.0741116950525 | 2.5956e-05 | deg |
tp | 2459259.991332718650 (2021-Feb-14.49133272) | 0.00014096 | TDB |
period | 1960.195746190826 5.37 | 3.4956e-05 9.57e-08 | d yr |
n | .183655127657314 | 3.2751e-09 | deg/d |
Q | 3.386172348848579 | 4.0257e-08 | au |
|
| | Orbit Determination Parameters
Additional Information
|